When you browse on this site, cookies collect data to enhance your experience and personalize the content and advertising you see.
Visit our Privacy Policy to learn more. By continuing to use the site, you agree to this use of cookies and data.
  • In Netherlands
  • List of Countries
  • For 7 days
  • Water Temperature
  • Weather Map
  • Weather Widgets
  • user-avatar
    Login

    Hourly Weather Kudagu

    Today, 19 October, Saturday

    Time Temperature Precipitation Wind Pressure Humidity
    00:00 +13°C° 0 mm 1 mps 668 mmHg 59%
    01:00 +12°C° 0 mm 1 mps 668 mmHg 59%
    02:00 +12°C° 0 mm 1 mps 668 mmHg 58%
    03:00 +12°C° 0 mm 1 mps 667 mmHg 58%
    04:00 +12°C° 0 mm 1 mps 668 mmHg 56%
    05:00 +12°C° 0 mm 1 mps 668 mmHg 55%
    06:00 +12°C° 0 mm 1 mps 668 mmHg 54%
    07:00 +14°C° 0 mm 1 mps 668 mmHg 51%
    08:00 +15°C° 0 mm 1 mps 669 mmHg 48%
    09:00 +18°C° 0 mm 1 mps 670 mmHg 45%
    10:00 +19°C° 0 mm 1 mps 670 mmHg 46%
    11:00 +18°C° 0 mm 2 mps 670 mmHg 47%
    12:00 +19°C° 0 mm 2 mps 670 mmHg 48%
    13:00 +18°C° 0.1 mm 2 mps 670 mmHg 53%
    14:00 +18°C° 0.1 mm 2 mps 670 mmHg 58%
    15:00 +17°C° 0.1 mm 2 mps 669 mmHg 63%
    16:00 +16°C° 0.2 mm 1 mps 669 mmHg 70%
    17:00 +15°C° 0.2 mm 1 mps 669 mmHg 77%
    18:00 +12°C° 0.2 mm 0 mps 669 mmHg 84%
    19:00 +12°C° 0 mm 0 mps 669 mmHg 83%
    20:00 +12°C° 0 mm 0 mps 669 mmHg 82%
    21:00 +11°C° 0 mm 0 mps 670 mmHg 82%
    22:00 +11°C° 0 mm 0 mps 670 mmHg 80%
    23:00 +12°C° 0 mm 1 mps 670 mmHg 79%

    Tomorrow, 20 October, Sunday

    Time Temperature Precipitation Wind Pressure Humidity
    00:00 +12°C° 0 mm 1 mps 670 mmHg 77%
    01:00 +11°C° 0 mm 1 mps 669 mmHg 76%
    02:00 +11°C° 0 mm 1 mps 669 mmHg 76%
    03:00 +11°C° 0 mm 1 mps 669 mmHg 75%
    04:00 +11°C° 0 mm 1 mps 670 mmHg 74%
    05:00 +11°C° 0 mm 1 mps 670 mmHg 74%
    06:00 +11°C° 0 mm 1 mps 670 mmHg 73%
    07:00 +12°C° 0 mm 1 mps 670 mmHg 68%
    08:00 +14°C° 0 mm 1 mps 671 mmHg 63%
    09:00 +16°C° 0 mm 1 mps 672 mmHg 59%
    10:00 +16°C° 0 mm 2 mps 672 mmHg 59%
    11:00 +17°C° 0 mm 2 mps 672 mmHg 59%
    12:00 +17°C° 0 mm 3 mps 672 mmHg 58%
    13:00 +17°C° 0.1 mm 2 mps 672 mmHg 62%
    14:00 +16°C° 0.1 mm 2 mps 671 mmHg 65%
    15:00 +15°C° 0.1 mm 2 mps 671 mmHg 69%
    16:00 +14°C° 0.1 mm 1 mps 671 mmHg 75%
    17:00 +13°C° 0.1 mm 1 mps 671 mmHg 82%
    18:00 +10°C° 0.1 mm 0 mps 671 mmHg 89%
    19:00 +10°C° 0 mm 0 mps 671 mmHg 89%
    20:00 +10°C° 0 mm 0 mps 671 mmHg 89%
    21:00 +9°C° 0 mm 0 mps 671 mmHg 89%
    22:00 +9°C° 0 mm 0 mps 671 mmHg 89%
    23:00 +9°C° 0 mm 0 mps 671 mmHg 88%

    Day after tomorrow, 21 October, Monday

    Time Temperature Precipitation Wind Pressure Humidity
    00:00 +9°C° 0 mm 0 mps 671 mmHg 88%
    01:00 +9°C° 0 mm 0 mps 670 mmHg 87%
    02:00 +8°C° 0 mm 0 mps 670 mmHg 87%
    03:00 +8°C° 0 mm 0 mps 670 mmHg 86%
    04:00 +8°C° 0 mm 0 mps 670 mmHg 86%
    05:00 +8°C° 0 mm 0 mps 670 mmHg 85%
    06:00 +8°C° 0 mm 0 mps 670 mmHg 84%
    07:00 +10°C° 0 mm 1 mps 671 mmHg 78%
    08:00 +12°C° 0 mm 1 mps 671 mmHg 71%
    09:00 +14°C° 0 mm 1 mps 672 mmHg 65%
    10:00 +14°C° 0 mm 2 mps 672 mmHg 64%
    11:00 +15°C° 0 mm 2 mps 672 mmHg 62%
    12:00 +16°C° 0 mm 3 mps 672 mmHg 61%
    13:00 +15°C° 0 mm 2 mps 672 mmHg 64%
    14:00 +14°C° 0 mm 2 mps 672 mmHg 66%
    15:00 +14°C° 0 mm 2 mps 671 mmHg 69%
    16:00 +13°C° 0 mm 1 mps 671 mmHg 76%
    17:00 +11°C° 0 mm 1 mps 671 mmHg 83%
    18:00 +9°C° 0 mm 0 mps 670 mmHg 89%
    19:00 +9°C° 0 mm 0 mps 670 mmHg 89%
    20:00 +8°C° 0 mm 0 mps 670 mmHg 89%
    21:00 +8°C° 0 mm 0 mps 670 mmHg 88%
    22:00 +8°C° 0 mm 0 mps 670 mmHg 88%
    23:00 +8°C° 0 mm 0 mps 670 mmHg 88%

    22 October, Tuesday

    Time Temperature Precipitation Wind Pressure Humidity
    00:00 +8°C° 0 mm 0 mps 670 mmHg 88%
    01:00 +8°C° 0 mm 0 mps 670 mmHg 87%
    02:00 +8°C° 0 mm 0 mps 669 mmHg 86%
    03:00 +7°C° 0 mm 0 mps 669 mmHg 85%
    04:00 +7°C° 0 mm 0 mps 669 mmHg 84%
    05:00 +7°C° 0 mm 0 mps 669 mmHg 83%
    06:00 +7°C° 0 mm 0 mps 669 mmHg 82%
    07:00 +10°C° 0 mm 1 mps 670 mmHg 77%
    08:00 +11°C° 0 mm 1 mps 671 mmHg 72%
    09:00 +13°C° 0 mm 1 mps 671 mmHg 67%
    10:00 +14°C° 0 mm 2 mps 671 mmHg 66%
    11:00 +14°C° 0 mm 2 mps 671 mmHg 64%
    12:00 +14°C° 0 mm 3 mps 671 mmHg 63%
    13:00 +15°C° 0 mm 2 mps 671 mmHg 65%
    14:00 +14°C° 0 mm 2 mps 671 mmHg 68%
    15:00 +14°C° 0 mm 2 mps 671 mmHg 71%
    16:00 +12°C° 0 mm 1 mps 670 mmHg 77%
    17:00 +11°C° 0 mm 1 mps 670 mmHg 84%
    18:00 +9°C° 0 mm 0 mps 670 mmHg 90%
    19:00 +8°C° 0 mm 0 mps 670 mmHg 90%
    20:00 +8°C° 0 mm 0 mps 670 mmHg 89%
    21:00 +8°C° 0 mm 0 mps 670 mmHg 89%
    22:00 +8°C° 0 mm 0 mps 670 mmHg 88%
    23:00 +8°C° 0 mm 0 mps 670 mmHg 87%

    23 October, Wednesday

    Time Temperature Precipitation Wind Pressure Humidity
    00:00 +8°C° 0 mm 0 mps 670 mmHg 86%
    01:00 +8°C° 0 mm 0 mps 669 mmHg 84%
    02:00 +9°C° 0 mm 1 mps 669 mmHg 82%
    03:00 +9°C° 0 mm 1 mps 669 mmHg 80%
    04:00 +9°C° 0 mm 1 mps 669 mmHg 78%
    05:00 +7°C° 0 mm 0 mps 669 mmHg 77%
    06:00 +7°C° 0 mm 0 mps 669 mmHg 75%
    07:00 +10°C° 0 mm 1 mps 670 mmHg 70%
    08:00 +12°C° 0 mm 1 mps 670 mmHg 65%
    09:00 +14°C° 0 mm 1 mps 671 mmHg 59%
    10:00 +14°C° 0 mm 1 mps 671 mmHg 59%
    11:00 +15°C° 0 mm 2 mps 671 mmHg 58%
    12:00 +16°C° 0 mm 2 mps 671 mmHg 58%
    13:00 +16°C° 0 mm 2 mps 671 mmHg 60%
    14:00 +15°C° 0 mm 2 mps 671 mmHg 63%
    15:00 +15°C° 0 mm 2 mps 671 mmHg 66%
    16:00 +13°C° 0 mm 1 mps 670 mmHg 73%
    17:00 +12°C° 0 mm 1 mps 670 mmHg 81%
    18:00 +9°C° 0 mm 0 mps 670 mmHg 89%
    19:00 +9°C° 0 mm 0 mps 670 mmHg 88%
    20:00 +9°C° 0 mm 0 mps 670 mmHg 87%
    21:00 +9°C° 0 mm 0 mps 670 mmHg 86%
    22:00 +8°C° 0 mm 0 mps 670 mmHg 85%
    23:00 +8°C° 0 mm 0 mps 670 mmHg 83%

    24 October, Thursday

    Time Temperature Precipitation Wind Pressure Humidity
    00:00 +9°C° 0 mm 1 mps 670 mmHg 82%
    01:00 +9°C° 0 mm 1 mps 670 mmHg 80%
    02:00 +9°C° 0 mm 1 mps 670 mmHg 78%
    03:00 +8°C° 0 mm 0 mps 670 mmHg 76%
    04:00 +9°C° 0 mm 1 mps 670 mmHg 74%
    05:00 +9°C° 0 mm 1 mps 670 mmHg 73%
    06:00 +9°C° 0 mm 1 mps 670 mmHg 71%
    07:00 +10°C° 0 mm 1 mps 670 mmHg 66%
    08:00 +12°C° 0 mm 1 mps 671 mmHg 61%
    09:00 +14°C° 0 mm 1 mps 671 mmHg 56%
    10:00 +15°C° 0 mm 2 mps 671 mmHg 57%
    11:00 +15°C° 0 mm 2 mps 671 mmHg 57%
    12:00 +16°C° 0 mm 2 mps 671 mmHg 57%
    13:00 +16°C° 0 mm 2 mps 671 mmHg 61%
    14:00 +15°C° 0 mm 2 mps 671 mmHg 64%
    15:00 +15°C° 0 mm 2 mps 670 mmHg 68%
    16:00 +13°C° 0 mm 2 mps 670 mmHg 74%
    17:00 +12°C° 0 mm 1 mps 670 mmHg 81%
    18:00 +10°C° 0 mm 0 mps 670 mmHg 88%
    19:00 +9°C° 0 mm 0 mps 670 mmHg 87%
    20:00 +9°C° 0 mm 0 mps 670 mmHg 86%
    21:00 +9°C° 0 mm 0 mps 670 mmHg 85%
    22:00 +9°C° 0 mm 0 mps 670 mmHg 84%
    23:00 +9°C° 0 mm 0 mps 669 mmHg 84%
    Show more